TimeCDT,TemperatureF,Dew PointF,Humidity,Sea Level PressureIn,VisibilityMPH,Wind Direction,Wind SpeedMPH,Gust SpeedMPH,PrecipitationIn,Events,Conditions,WindDirDegrees,DateUTC
12:15 AM,46.4,44.6,93,29.93,10.0,NNE,10.4,17.3,N/A,Rain,Rain,20,2013-05-23 05:15:00
12:35 AM,46.4,44.6,93,29.94,10.0,NNE,13.8,-,0.01,Rain,Rain,30,2013-05-23 05:35:00
12:55 AM,44.6,44.6,100,29.95,10.0,NNE,10.4,-,0.01,Rain,Light Rain,20,2013-05-23 05:55:00
1:15 AM,44.6,42.8,93,29.95,10.0,NNE,15.0,21.9,N/A,Rain,Rain,30,2013-05-23 06:15:00
1:35 AM,44.6,42.8,93,29.95,10.0,NNE,11.5,-,N/A,,Light Drizzle,30,2013-05-23 06:35:00
1:55 AM,44.6,42.8,93,29.96,10.0,NNE,12.7,20.7,N/A,,Overcast,20,2013-05-23 06:55:00
2:15 AM,42.8,41.0,93,29.97,10.0,NNE,12.7,16.1,N/A,,Overcast,30,2013-05-23 07:15:00
2:35 AM,42.8,41.0,93,29.97,10.0,NNE,10.4,-,N/A,,Overcast,20,2013-05-23 07:35:00
2:55 AM,42.8,41.0,93,29.98,10.0,NNE,10.4,-,N/A,,Overcast,30,2013-05-23 07:55:00
3:15 AM,41.0,39.2,93,29.98,10.0,NNE,13.8,21.9,N/A,,Overcast,20,2013-05-23 08:15:00
3:35 AM,41.0,37.4,87,30.00,10.0,NNE,12.7,21.9,N/A,,Overcast,20,2013-05-23 08:35:00
3:55 AM,41.0,37.4,87,30.00,10.0,NNE,9.2,19.6,N/A,,Overcast,20,2013-05-23 08:55:00
4:15 AM,41.0,37.4,87,30.01,10.0,NNE,11.5,19.6,N/A,,Overcast,20,2013-05-23 09:15:00
4:35 AM,39.2,35.6,87,30.03,10.0,NNE,13.8,25.3,N/A,,Overcast,20,2013-05-23 09:35:00
4:55 AM,39.2,35.6,87,30.04,10.0,NNE,13.8,20.7,N/A,,Overcast,20,2013-05-23 09:55:00
5:15 AM,39.2,35.6,87,30.05,10.0,NNE,9.2,-,N/A,,Overcast,30,2013-05-23 10:15:00
5:35 AM,37.4,35.6,93,30.06,10.0,North,10.4,17.3,N/A,,Overcast,10,2013-05-23 10:35:00
5:55 AM,37.4,35.6,93,30.07,10.0,NNE,10.4,24.2,N/A,,Overcast,20,2013-05-23 10:55:00
6:15 AM,37.4,35.6,93,30.08,10.0,NNE,11.5,18.4,N/A,,Overcast,20,2013-05-23 11:15:00
6:35 AM,37.4,33.8,87,30.09,10.0,NNE,12.7,25.3,N/A,,Overcast,20,2013-05-23 11:35:00
6:55 AM,37.4,33.8,87,30.10,10.0,North,16.1,24.2,N/A,,Overcast,10,2013-05-23 11:55:00
7:15 AM,37.4,32.0,81,30.11,10.0,NNE,16.1,25.3,N/A,,Mostly Cloudy,30,2013-05-23 12:15:00
7:35 AM,39.2,32.0,75,30.11,10.0,NE,20.7,26.5,N/A,,Scattered Clouds,40,2013-05-23 12:35:00
7:55 AM,39.2,32.0,75,30.12,10.0,NNE,15.0,24.2,N/A,,Scattered Clouds,20,2013-05-23 12:55:00
8:15 AM,41.0,33.8,76,30.14,10.0,NNE,12.7,20.7,N/A,,Scattered Clouds,20,2013-05-23 13:15:00
8:35 AM,41.0,33.8,76,30.15,10.0,NNE,13.8,18.4,N/A,,Mostly Cloudy,30,2013-05-23 13:35:00
8:55 AM,42.8,33.8,70,30.15,10.0,North,16.1,21.9,N/A,,Mostly Cloudy,360,2013-05-23 13:55:00
9:15 AM,44.6,32.0,61,30.16,10.0,NNE,17.3,26.5,N/A,,Scattered Clouds,20,2013-05-23 14:15:00
9:35 AM,44.6,33.8,66,30.17,10.0,NE,13.8,20.7,N/A,,Clear,40,2013-05-23 14:35:00
9:55 AM,46.4,32.0,57,30.17,10.0,NNE,13.8,19.6,N/A,,Clear,20,2013-05-23 14:55:00
10:15 AM,46.4,32.0,57,30.17,10.0,North,17.3,20.7,N/A,,Clear,10,2013-05-23 15:15:00
10:35 AM,46.4,32.0,57,30.18,10.0,North,15.0,20.7,N/A,,Clear,360,2013-05-23 15:35:00
10:55 AM,48.2,32.0,54,30.18,10.0,NNE,17.3,23.0,N/A,,Clear,20,2013-05-23 15:55:00
11:15 AM,50.0,32.0,50,30.18,10.0,NNE,15.0,23.0,N/A,,Clear,30,2013-05-23 16:15:00
11:35 AM,50.0,32.0,50,30.19,10.0,North,11.5,23.0,N/A,,Clear,10,2013-05-23 16:35:00
11:55 AM,50.0,32.0,50,30.19,10.0,NE,15.0,23.0,N/A,,Clear,40,2013-05-23 16:55:00
12:15 PM,51.8,32.0,47,30.19,10.0,NNE,10.4,20.7,N/A,,Clear,30,2013-05-23 17:15:00
12:35 PM,51.8,33.8,50,30.20,10.0,North,15.0,21.9,N/A,,Clear,10,2013-05-23 17:35:00
12:55 PM,51.8,32.0,47,30.20,10.0,North,18.4,26.5,N/A,,Clear,360,2013-05-23 17:55:00
1:15 PM,51.8,32.0,47,30.21,10.0,North,11.5,23.0,N/A,,Clear,10,2013-05-23 18:15:00
1:35 PM,53.6,32.0,44,30.21,10.0,NE,16.1,24.2,N/A,,Clear,40,2013-05-23 18:35:00
1:55 PM,53.6,33.8,47,30.21,10.0,NNE,11.5,16.1,N/A,,Clear,20,2013-05-23 18:55:00
2:15 PM,53.6,32.0,44,30.22,10.0,NNE,12.7,23.0,N/A,,Clear,20,2013-05-23 19:15:00
2:35 PM,53.6,32.0,44,30.22,10.0,North,13.8,23.0,N/A,,Clear,10,2013-05-23 19:35:00
2:55 PM,55.4,33.8,44,30.22,10.0,NNE,15.0,20.7,N/A,,Clear,20,2013-05-23 19:55:00
3:15 PM,55.4,32.0,41,30.22,10.0,North,12.7,-,N/A,,Clear,360,2013-05-23 20:15:00
3:55 PM,55.4,32.0,41,30.23,10.0,NNW,10.4,19.6,N/A,,Clear,330,2013-05-23 20:55:00
4:15 PM,55.4,32.0,41,30.23,10.0,North,15.0,19.6,N/A,,Clear,10,2013-05-23 21:15:00
4:35 PM,55.4,32.0,41,30.23,10.0,NNE,13.8,21.9,N/A,,Clear,30,2013-05-23 21:35:00
4:55 PM,55.4,30.2,38,30.24,10.0,North,13.8,18.4,N/A,,Clear,10,2013-05-23 21:55:00
5:15 PM,55.4,32.0,41,30.25,10.0,NNE,15.0,19.6,N/A,,Clear,20,2013-05-23 22:15:00
5:35 PM,53.6,30.2,41,30.25,10.0,NE,15.0,19.6,N/A,,Clear,40,2013-05-23 22:35:00
5:55 PM,53.6,30.2,41,30.25,10.0,NNE,11.5,-,N/A,,Clear,20,2013-05-23 22:55:00
6:15 PM,53.6,30.2,41,30.26,10.0,NNE,11.5,17.3,N/A,,Clear,20,2013-05-23 23:15:00
6:35 PM,53.6,32.0,44,30.26,10.0,NE,10.4,-,N/A,,Clear,40,2013-05-23 23:35:00
6:55 PM,51.8,30.2,44,30.28,10.0,North,11.5,-,N/A,,Clear,10,2013-05-23 23:55:00
7:15 PM,51.8,32.0,47,30.28,10.0,NNE,10.4,-,N/A,,Clear,30,2013-05-24 00:15:00
7:35 PM,50.0,32.0,50,30.29,10.0,North,6.9,-,N/A,,Clear,10,2013-05-24 00:35:00
10:55 PM,39.2,32.0,75,30.34,10.0,Calm,Calm,-,N/A,,Clear,0,2013-05-24 03:55:00
11:15 PM,37.4,33.8,87,30.34,10.0,Calm,Calm,-,N/A,,Clear,0,2013-05-24 04:15:00
11:35 PM,33.8,32.0,93,30.34,10.0,Calm,Calm,-,N/A,,Clear,0,2013-05-24 04:35:00
11:55 PM,33.8,32.0,93,30.35,10.0,Calm,Calm,-,N/A,,Clear,0,2013-05-24 04:55:00